This is the latest recevied weather packets stored in our database for station/object DC0VZ-6. If no packets are shown the sender has not sent any weather packets the latest 10 day(s).
| Time | Temp. | Humidity | Pressure | Rain* | Wind** | Luminosity | Snow |
|---|---|---|---|---|---|---|---|
| 1777770374 | 13.33° C | 19% | 983.8 hPa | 0 mm | - | - | - |
| 1777769774 | 13.33° C | 19% | 983.9 hPa | 0 mm | - | - | - |
| 1777769174 | 12.22° C | 20% | 983.9 hPa | 0 mm | - | - | - |
| 1777768574 | 12.22° C | 20% | 984 hPa | 0 mm | - | - | - |
| 1777767974 | 13.33° C | 19% | 984 hPa | 0 mm | - | - | - |
| 1777767373 | 13.33° C | 19% | 984.2 hPa | 0 mm | - | - | - |
| 1777766773 | 13.89° C | 19% | 984.2 hPa | 0 mm | - | - | - |
| 1777766173 | 13.89° C | 19% | 984.2 hPa | 0 mm | - | - | - |
| 1777765573 | 13.33° C | 19% | 984.2 hPa | 0 mm | - | - | - |
| 1777764973 | 13.33° C | 19% | 984.4 hPa | 0 mm | - | - | - |
| 1777764373 | 13.33° C | 19% | 984.4 hPa | 0 mm | - | - | - |
| 1777763773 | 13.33° C | 19% | 984.7 hPa | 0 mm | - | - | - |
| 1777763173 | 13.33° C | 19% | 984.7 hPa | 0 mm | - | - | - |
| 1777762573 | 14.44° C | 19% | 984.6 hPa | 0 mm | - | - | - |
| 1777761973 | 15° C | 19% | 984.6 hPa | 0 mm | - | - | - |
| 1777761372 | 14.44° C | 19% | 984.7 hPa | 0 mm | - | - | - |
| 1777760773 | 14.44° C | 19% | 984.7 hPa | 0 mm | - | - | - |
| 1777760172 | 15° C | 19% | 984.9 hPa | 0 mm | - | - | - |
| 1777759572 | 15° C | 12% | 984.9 hPa | 0 mm | - | - | - |
| 1777758972 | 14.44° C | 13% | 985.2 hPa | 0 mm | - | - | - |
| 1777758372 | 12.22° C | 13% | 985.2 hPa | 0 mm | - | - | - |
| 1777757772 | 12.22° C | 13% | 985.1 hPa | 0 mm | - | - | - |
| 1777757172 | 12.22° C | 13% | 985.1 hPa | 0 mm | - | - | - |
| 1777756572 | 12.22° C | 5% | 985 hPa | 0 mm | - | - | - |
| 1777755972 | 12.78° C | 5% | 985 hPa | 0 mm | - | - | - |
* Rain latest hour (hover to see other rain measurements)
** Current wind speed in m/s (hover to see current wind gust speed)